Location: Newark
(48.0000°N, 67.0000°E)
Time: 13:08:46
(UTC+00:00)

deb Explorer IX - All Passes

Search period start: 21 February 2020 00:00
Search period end: 02 March 2020 00:00
Orbit: 549 x 1099 km, 38.8° (Epoch: 20 February)

Date Brightness Start Highest point End Pass type
(mag) Time Alt. Az. Time Alt. Az. Time Alt. Az.
21 Feb - 06:06:21 10° S 06:07:27 11° SSE 06:08:33 10° SE daylight
21 Feb - 07:50:10 10° SW 07:53:21 21° S 07:56:32 10° ESE daylight
21 Feb - 09:36:13 10° WSW 09:39:23 21° S 09:42:41 10° SE daylight
21 Feb - 11:24:10 10° SW 11:25:20 11° SSW 11:26:31 10° S daylight
22 Feb - 05:43:47 10° S 05:45:10 11° SSE 05:46:30 10° SE daylight
22 Feb - 07:27:52 10° SW 07:31:05 22° S 07:34:16 10° ESE daylight
22 Feb - 09:13:59 10° WSW 09:17:06 21° S 09:20:18 10° SE daylight
22 Feb - 11:02:23 10° SSW 11:03:01 10° SSW 11:03:40 10° SSW daylight
23 Feb - 05:21:14 10° S 05:22:53 12° SSE 05:24:28 10° SE daylight
23 Feb - 07:05:33 10° SW 07:08:48 22° S 07:12:00 10° ESE daylight
23 Feb - 08:51:45 10° WSW 08:54:50 21° S 08:57:58 10° SE daylight
24 Feb - 04:58:40 10° S 05:00:34 12° SSE 05:02:25 10° SE daylight
24 Feb - 06:43:12 10° SW 06:46:32 22° S 06:49:46 10° ESE daylight
24 Feb - 08:29:29 10° WSW 08:32:34 20° S 08:35:39 10° SE daylight
25 Feb - 04:36:05 10° S 04:38:16 13° SSE 04:40:21 10° SE daylight
25 Feb - 06:20:49 10° SW 06:24:16 23° S 06:27:33 10° ESE daylight
25 Feb - 08:07:11 10° WSW 08:10:18 20° S 08:13:21 10° SE daylight
26 Feb - 04:13:31 10° S 04:15:57 14° SSE 04:18:17 10° SE daylight
26 Feb - 05:58:25 10° SW 06:01:59 23° S 06:05:20 10° ESE daylight
26 Feb - 07:44:53 10° WSW 07:48:01 20° SSW 07:51:05 10° SE daylight
27 Feb - 03:50:55 10° SSW 03:53:38 15° SSE 03:56:12 10° SE daylight
27 Feb - 05:36:00 10° SW 05:39:42 24° S 05:43:08 10° ESE daylight
27 Feb - 07:22:32 10° WSW 07:25:45 20° SSW 07:28:50 10° SE daylight
28 Feb - 03:28:19 10° SSW 03:31:19 16° SSE 03:34:07 10° ESE daylight
28 Feb - 05:13:33 10° SW 05:17:25 25° S 05:20:57 10° ESE daylight
28 Feb - 07:00:10 10° WSW 07:03:28 21° SSW 07:06:35 10° SE daylight
29 Feb - 03:05:42 10° SSW 03:08:59 17° SSE 03:12:01 10° ESE daylight
29 Feb - 04:51:04 10° SW 04:55:07 26° S 04:58:46 10° ESE daylight
29 Feb - 06:37:47 10° WSW 06:41:10 21° SSW 06:44:22 10° SE daylight
01 Mar - 02:43:05 10° SSW 02:46:38 18° SSE 02:49:54 10° ESE daylight
01 Mar - 04:28:35 10° SW 04:32:48 26° S 04:36:35 10° ESE daylight
01 Mar - 06:15:22 10° WSW 06:18:53 21° SSW 06:22:09 10° SE daylight
